[[{"header":{"parameterUnit":"m.s-1","parameterCategory":1,"la1":30.2991,"la2":30.254,"lo1":-89.0895,"lo2":-89.0444,"dy":0.0017,"dx":0.0017,"nx":28,"ny":28,"refTime":"2024-08-27T09:00:00:Z","depth":0,"parameterNumber":2,"parameterNumberName":"U-component_of_WINDS"},"data":[0,0,0,0,0,0,0,0,0,0,0,0,0,0,0,0,0,0,0,0,0,0,0,0,0,0,0,0,0,0,0,0,0,0,0,0,0,0,0,0,0,0,0,0,0,0,0,0,0,0,0,0,0,0,0,0,0,0,0.4895,0.4895,0,0.4932,0.4933,0.4933,0.495,0.495,0.495,0.495,0.499,0.4991,0.4992,0,0,0,0,0,0,0,0,0,0,0,0,0,0.484,0.4841,0.4895,0.4895,0.4896,0.4932,0.4933,0.4933,0.495,0.495,0.495,0.495,0.499,0.4991,0.4992,0,0,0,0,0,0,0,0,0,0,0,0,0,0.4869,0.4841,0.4895,0.4909,0.491,0.4932,0.4933,0.4933,0.495,0.495,0.495,0.495,0.4989,0.4991,0.4993,0.5004,0,0,0.4998,0.4998,0,0,0,0,0,0,0,0,0.4868,0.4871,0.4906,0.4908,0.491,0.4936,0.4928,0.4957,0.495,0.4935,0.495,0.495,0.4972,0.4975,0.4983,0.5006,0.5007,0.4998,0.4999,0.4999,0.5,0,0,0,0,0,0,0,0.4865,0.487,0.491,0.4907,0.4909,0.4913,0.4918,0.4933,0.4954,0.4936,0.4938,0.4942,0.4973,0.4981,0.4984,0.5008,0.4998,0.4999,0.5,0.5001,0.5041,0.5041,0,0,0,0,0,0,0.4861,0.4868,0.4909,0.4911,0.4888,0.4914,0.4919,0.4928,0.4954,0.4957,0.4942,0.4943,0.4978,0.4982,0.4985,0.4999,0.4999,0.5001,0.5002,0.5041,0.5041,0.5041,0,0,0,0,0,0,0.486,0.4864,0.4907,0.489,0.4895,0.4915,0.4925,0.4929,0.4936,0.4958,0.4961,0.4946,0.4978,0.4983,0.4999,0.5001,0.5002,0.5003,0.5041,0.5041,0.5041,0.5028,0,0,0,0,0,0,0.4858,0.4864,0.4868,0.489,0.4896,0.4919,0.4925,0.4929,0.4939,0.494,0.4962,0.4966,0.4979,0.4996,0.5,0.5003,0.5004,0.5041,0.5041,0.5041,0.5028,0.5028,0.5027,0,0,0,0,0,0.4856,0.4864,0.4868,0.4873,0.4902,0.492,0.4923,0.4937,0.4939,0.4943,0.4957,0.4965,0.5,0.4998,0.5002,0.5006,0.5041,0.5041,0.5041,0.5028,0.5028,0.5027,0,0,0,0,0,0,0.4843,0.4867,0.4872,0.4887,0.4901,0.4922,0.4929,0.4936,0.4951,0.4951,0.4968,0.4973,0.4987,0.4998,0.4995,0.5018,0.5021,0.5022,0.501,0.5009,0.5009,0.5006,0.5006,0,0,0,0,0,0.4841,0.4853,0.4874,0.4885,0.4891,0.4909,0.4917,0.4926,0.4942,0.4948,0.4963,0.4978,0.4992,0.5001,0.5016,0.503,0.5035,0.5035,0.5034,0.5033,0.5034,0.5042,0.5042,0.5042,0.5042,0.5042,0,0,0.4839,0.4854,0.486,0.4882,0.4894,0.4906,0.4914,0.4926,0.4936,0.495,0.4966,0.4977,0.4995,0.501,0.5017,0.5019,0.5035,0.5033,0.5033,0.5034,0.5042,0.5042,0.5042,0.5042,0.5042,0.5042,0,0,0.4841,0.4853,0.4863,0.4875,0.4892,0.4903,0.4906,0.4926,0.4934,0.4949,0.496,0.4972,0.4996,0.5008,0.5018,0.5022,0.5031,0.5027,0.5024,0.5031,0.5031,0.5031,0.5032,0.5033,0.5028,0.5027,0.5027,0,0.4836,0.4854,0.4867,0.4879,0.4888,0.4901,0.4911,0.4922,0.4944,0.495,0.4952,0.4982,0.4996,0.5013,0.5014,0.5021,0.5024,0.5024,0.503,0.503,0.503,0.5032,0.5032,0.5027,0.5027,0.5027,0.5027,0,0.4846,0.4859,0.4865,0.4884,0.4894,0.4905,0.4921,0.4929,0.4937,0.4948,0.4964,0.498,0.4997,0.5002,0.5011,0.502,0.5021,0.5026,0.503,0.5029,0.5031,0.5032,0.5026,0.5026,0.5026,0.5027,0,0,0.4842,0.4867,0.4869,0.4878,0.4898,0.4908,0.4919,0.4936,0.4942,0.4957,0.4967,0.4986,0.4991,0.5001,0.5011,0.5017,0.502,0.5022,0.5022,0.502,0.5031,0.5027,0.5027,0.5025,0.5025,0.5025,0.5029,0,0.4846,0.4866,0.4878,0.4894,0.4905,0.4917,0.4926,0.494,0.495,0.4962,0.4973,0.4987,0.4992,0.4998,0.5005,0.5018,0.5022,0.5018,0.5035,0.5035,0.5029,0.5028,0.5024,0.5027,0.503,0.503,0.503,0,0.4854,0.4866,0.4883,0.49,0.4906,0.4914,0.4929,0.494,0.4955,0.4963,0.4974,0.4983,0.4996,0.4998,0.5016,0.5013,0.502,0.5028,0.5028,0.503,0.5033,0.503,0.5029,0.5029,0.5032,0.5031,0.5031,0,0.4848,0.4869,0.4882,0.4889,0.491,0.4915,0.4925,0.494,0.4948,0.4962,0.4968,0.4983,0.4991,0.5003,0.5016,0.5017,0.5032,0.5036,0.5038,0.5038,0.5041,0.5041,0.5041,0.5046,0.5046,0.5046,0.5046,0,0.4851,0.4861,0.4879,0.4887,0.4897,0.4911,0.4921,0.4932,0.4945,0.4955,0.4966,0.4975,0.4992,0.5004,0.5014,0.5027,0.5031,0.5037,0.504,0.5036,0.5035,0.5041,0.5041,0.5046,0.5046,0.5046,0.5046,0,0.4847,0.4859,0.4873,0.4892,0.4897,0.4904,0.4919,0.4927,0.4938,0.495,0.4954,0.4971,0.4984,0.4999,0.5018,0.5025,0.5037,0.5041,0.5032,0.5033,0.5035,0.5034,0.5038,0.504,0.5044,0.5044,0.5044,0,0.4848,0.4855,0.4874,0.4881,0.4889,0.4901,0.4909,0.4923,0.4931,0.4948,0.4954,0.4968,0.4981,0.5002,0.5016,0.5031,0.5035,0.5036,0.5037,0.5033,0.5035,0.5034,0.5035,0.5035,0.5035,0.5035,0.5035,0,0.4849,0.4854,0.4866,0.4879,0.4888,0.49,0.4912,0.4917,0.4933,0.4942,0.4955,0.4965,0.4983,0.4998,0.5013,0.5024,0.5032,0.5034,0.5035,0.5031,0.5025,0.5028,0.503,0.5034,0.5034,0.5034,0.5034,0.5034,0.4847,0.4854,0.4867,0.4879,0.489,0.49,0.4908,0.4919,0.493,0.4946,0.4953,0.4967,0.4982,0.5004,0.5013,0.5024,0.5027,0.5029,0.5029,0.5029,0.5028,0.5023,0.5027,0.5027,0.5027,0.5027,0.5027,0,0.4848,0.4857,0.4868,0.4883,0.4893,0.4899,0.4912,0.492,0.4931,0.4944,0.4955,0.497,0.4984,0.4999,0.5013,0.5019,0.5023,0.5022,0.5022,0.5024,0.5025,0.5023,0.5019,0.5019,0.5019,0.5019,0.5019,0.5019,0.4849,0.4861,0.4868,0.4884,0.4894,0.4906,0.4913,0.4923,0.4933,0.4949,0.496,0.4969,0.4982,0.4998,0.501,0.5014,0.5019,0.5017,0.5022,0.5023,0.5024,0.5025,0.5022,0.5018,0.5018,0.502,0.502,0.502]},{"header":{"parameterUnit":"m.s-1","parameterCategory":1,"la1":30.2991,"la2":30.254,"lo1":-89.0895,"lo2":-89.0444,"dy":0.0017,"dx":0.0017,"nx":28,"ny":28,"refTime":"2024-08-27T09:00:00:Z","depth":0,"parameterNumber":3,"parameterNumberName":"V-component_of_WINDS"},"data":[0,0,0,0,0,0,0,0,0,0,0,0,0,0,0,0,0,0,0,0,0,0,0,0,0,0,0,0,0,0,0,0,0,0,0,0,0,0,0,0,0,0,0,0,0,0,0,0,0,0,0,0,0,0,0,0,0,0,1.6106,1.6106,0,1.606,1.6059,1.6059,1.6045,1.6045,1.6045,1.6045,1.5993,1.5991,1.599,0,0,0,0,0,0,0,0,0,0,0,0,0,1.6177,1.6176,1.6106,1.6106,1.6105,1.606,1.6059,1.6059,1.6045,1.6045,1.6045,1.6045,1.5993,1.5991,1.5989,0,0,0,0,0,0,0,0,0,0,0,0,0,1.614,1.6176,1.6106,1.6093,1.6091,1.606,1.6059,1.6058,1.6045,1.6045,1.6045,1.6046,1.5994,1.5992,1.5989,1.5967,0,0,1.5982,1.5981,0,0,0,0,0,0,0,0,1.6142,1.6138,1.6095,1.6094,1.6092,1.6059,1.6065,1.6027,1.6044,1.6062,1.6045,1.6046,1.6014,1.601,1.6,1.5964,1.5962,1.5982,1.598,1.5979,1.5978,0,0,0,0,0,0,0,1.6145,1.6139,1.6088,1.6095,1.6093,1.6087,1.6082,1.6058,1.6036,1.6061,1.6059,1.6054,1.6013,1.6003,1.5999,1.5961,1.5982,1.5979,1.5978,1.5977,1.5902,1.5902,0,0,0,0,0,0,1.615,1.6142,1.6089,1.6086,1.6119,1.6086,1.608,1.6069,1.6037,1.6032,1.6054,1.6054,1.6007,1.6002,1.5997,1.5967,1.5979,1.5977,1.5975,1.5903,1.5902,1.5902,0,0,0,0,0,0,1.6152,1.6146,1.6091,1.6114,1.6106,1.6084,1.6071,1.6068,1.6057,1.6032,1.6027,1.6048,1.6007,1.6,1.5974,1.5965,1.5976,1.5973,1.5903,1.5903,1.5902,1.5909,0,0,0,0,0,0,1.6154,1.6147,1.6139,1.6114,1.6105,1.6071,1.6071,1.6066,1.6054,1.6053,1.6025,1.602,1.6007,1.5978,1.5972,1.5962,1.5971,1.5904,1.5903,1.5902,1.5909,1.5908,1.5908,0,0,0,0,0,1.6157,1.6142,1.6139,1.6133,1.6096,1.607,1.6065,1.6051,1.6053,1.6044,1.6028,1.6021,1.5968,1.5975,1.5968,1.5958,1.5904,1.5903,1.5902,1.591,1.5908,1.5908,0,0,0,0,0,0,1.6166,1.6139,1.6135,1.6112,1.6094,1.6068,1.6057,1.6051,1.603,1.603,1.6012,1.6006,1.598,1.5967,1.5976,1.5933,1.5936,1.5933,1.5944,1.5942,1.5942,1.5945,1.5969,0,0,0,0,0,1.6166,1.6149,1.6125,1.6107,1.6099,1.6079,1.6068,1.6059,1.6038,1.603,1.6012,1.5991,1.5969,1.5955,1.5934,1.5907,1.59,1.5896,1.5895,1.5895,1.5893,1.5876,1.5873,1.5898,1.5898,1.5898,0,0,1.6164,1.6147,1.6138,1.6109,1.6094,1.6075,1.6073,1.6054,1.6039,1.6027,1.6001,1.5987,1.5962,1.5935,1.5922,1.5923,1.5884,1.5893,1.5893,1.5891,1.5874,1.5872,1.587,1.5897,1.5897,1.5897,0,0,1.6152,1.6138,1.6121,1.6106,1.6084,1.6071,1.6067,1.6042,1.6032,1.6007,1.5996,1.5978,1.5941,1.5924,1.591,1.589,1.5882,1.5883,1.5879,1.5862,1.586,1.5859,1.585,1.5847,1.5881,1.5881,1.5881,0,1.6152,1.6126,1.6113,1.6094,1.6081,1.607,1.6051,1.6037,1.6008,1.5998,1.5999,1.5952,1.5935,1.5903,1.5898,1.5888,1.5881,1.5886,1.5862,1.586,1.5858,1.585,1.5847,1.5881,1.5881,1.5881,1.5881,0,1.6127,1.6108,1.6097,1.6071,1.6056,1.6038,1.602,1.6006,1.5998,1.5984,1.5957,1.5936,1.5909,1.5901,1.5893,1.5868,1.5868,1.5866,1.5868,1.5856,1.5848,1.5845,1.5882,1.5881,1.5881,1.5881,0,0,1.6119,1.6086,1.6082,1.6069,1.6043,1.6028,1.6007,1.5983,1.5971,1.5951,1.5932,1.5901,1.5899,1.5883,1.5872,1.5858,1.5842,1.5857,1.5856,1.5854,1.5811,1.5812,1.5809,1.5837,1.5836,1.5836,1.5812,0,1.6103,1.6069,1.6056,1.6027,1.6008,1.5997,1.5979,1.596,1.5947,1.5928,1.5912,1.589,1.5889,1.5879,1.5865,1.5847,1.5832,1.5848,1.5817,1.5816,1.5823,1.5805,1.5806,1.5785,1.5809,1.5809,1.5808,0,1.6079,1.6061,1.603,1.6005,1.5997,1.5982,1.5957,1.594,1.5917,1.5908,1.589,1.588,1.5856,1.586,1.5826,1.5837,1.5823,1.5812,1.5811,1.5806,1.5811,1.5799,1.5779,1.5775,1.5803,1.5804,1.5804,0,1.6075,1.6042,1.6019,1.6009,1.598,1.5969,1.5956,1.5934,1.5919,1.5898,1.5888,1.5863,1.5849,1.5829,1.5811,1.5816,1.5778,1.5781,1.5768,1.5768,1.576,1.576,1.5736,1.5753,1.5753,1.5753,1.5753,0,1.6058,1.604,1.6017,1.6003,1.5981,1.5966,1.5944,1.593,1.591,1.5891,1.588,1.5862,1.584,1.5819,1.5805,1.5778,1.5772,1.5762,1.5758,1.5763,1.5764,1.5753,1.5753,1.5752,1.5752,1.5752,1.5753,0,1.605,1.6035,1.6009,1.5983,1.5976,1.5961,1.5938,1.5923,1.5909,1.5885,1.5879,1.5856,1.583,1.5811,1.5777,1.5767,1.5738,1.5735,1.5746,1.5744,1.5732,1.5733,1.5699,1.5693,1.5715,1.5715,1.5715,0,1.604,1.6025,1.5998,1.5986,1.5973,1.5953,1.5939,1.5922,1.5907,1.588,1.5867,1.5841,1.5819,1.5778,1.5757,1.5731,1.5726,1.5716,1.5722,1.5726,1.5724,1.5725,1.5722,1.5715,1.5715,1.5714,1.5714,0,1.6022,1.6015,1.5996,1.5973,1.5957,1.5938,1.5918,1.5908,1.5888,1.5871,1.5846,1.5829,1.5795,1.5768,1.574,1.5724,1.5715,1.5713,1.5708,1.5712,1.5719,1.5713,1.5743,1.5713,1.5714,1.5714,1.5714,1.5714,1.6012,1.5998,1.5977,1.5955,1.5939,1.5921,1.5905,1.5889,1.5868,1.584,1.5831,1.5804,1.578,1.5741,1.5725,1.5702,1.5702,1.5695,1.5693,1.5692,1.5691,1.5723,1.5696,1.5696,1.5696,1.5696,1.5696,0,1.5993,1.5979,1.5959,1.5933,1.5915,1.591,1.5888,1.5873,1.585,1.5829,1.5808,1.5777,1.5751,1.5728,1.57,1.5686,1.5681,1.5679,1.568,1.5676,1.5694,1.57,1.5684,1.5684,1.5684,1.5684,1.5684,1.5684,1.5981,1.5957,1.5947,1.5914,1.5899,1.5874,1.5862,1.5844,1.5827,1.5795,1.5773,1.5759,1.5736,1.5706,1.5681,1.5675,1.5665,1.5663,1.5656,1.5673,1.5675,1.5676,1.5682,1.5662,1.5662,1.5639,1.5639,1.5639]}]]